March AFB, CA

5:04 AM PST on February 24, 2017 (GMT -0800)
March Air Reserve Base

Weather History for KRIV - March, 2013

Change the Weather History Date:

Monday, March 18, 2013

  Actual Average Record
Temperature  
Mean Temperature 56 °F -  
Max Temperature 68 °F 70 °F 89 °F (1997)
Min Temperature 44 °F 43 °F 32 °F (2008)
Degree Days  
Heating Degree Days 9    
Growing Degree Days 6 (Base 50)    
Moisture  
Dew Point 51 °F    
Average Humidity 95    
Maximum Humidity 100    
Minimum Humidity 71    
Precipitation  
Precipitation 0.00 in - - ()
Sea Level Pressure  
Sea Level Pressure 30.02 in    
Wind  
Wind Speed 3 mph (WNW)    
Max Wind Speed 12 mph    
Max Gust Speed -    
Visibility 6 miles    
Events Fog , Rain    
Averages and records for this station are not official NWS values.
T = Trace of Precipitation, MM = Missing Value Source: NWS Daily Summary

Daily Weather History Graph

Daily Weather History Graph

Search for Another Location

Airport or City:

Trip Planner

Search our weather history database for the weather conditions in past years. The results will help you decide how hot, cold, wet, or windy it might be!

Date:

Astronomy

Mar. 18, 2013 Rise Set
Actual Time 6:54 AM PDT 6:59 PM PDT
Civil Twilight 6:30 AM PDT 7:24 PM PDT
Nautical Twilight 6:01 AM PDT 7:53 PM PDT
Astronomical Twilight 5:31 AM PDT 8:22 PM PDT
Moon 11:13 AM PDT (3/18) 12:47 AM PDT (3/18)
Length of Visible Light 12h 54m
Length of Day
12h 04m
Waxing Crescent, 41% of the Moon is Illuminated
Mar 18
Waxing Crescent
Mar 19
First Quarter
Mar 27
Full
Apr 2
Last Quarter
Apr 10
New

Hourly Weather History & Observations

Time (PDT) Temp. Windchill Dew Point Humidity Pressure Visibility Wind Dir Wind Speed Gust Speed Precip Events Conditions
12:58 AM 46.2 °F - 46.2 °F 100% 29.98 in 9.0 mi ESE 2.3 mph - N/A   Clear
1:42 AM 44.6 °F 42.2 °F 44.6 °F 100% 29.99 in 5.0 mi WNW 4.6 mph - N/A   Partly Cloudy
1:52 AM 44.6 °F - 44.6 °F 100% 29.99 in 5.0 mi NNW 2.3 mph - N/A   Mostly Cloudy
1:57 AM 44.6 °F 42.2 °F 44.6 °F 100% 29.99 in 5.0 mi WNW 4.6 mph - N/A   Mostly Cloudy
1:58 AM 46.0 °F 43.9 °F 46.0 °F 100% 30.00 in 4.0 mi NW 4.6 mph - N/A   Overcast
2:02 AM 46.4 °F 43.5 °F 46.4 °F 100% 30.00 in 6.0 mi NW 5.8 mph - N/A   Mostly Cloudy
2:10 AM 50.0 °F - 50.0 °F 100% 29.99 in 4.0 mi NNW 5.8 mph - N/A   Overcast
2:15 AM 50.0 °F - 50.0 °F 100% 30.00 in 4.0 mi NW 4.6 mph - N/A   Overcast
2:36 AM 50.0 °F - 50.0 °F 100% 30.00 in 2.5 mi NW 3.5 mph - N/A   Overcast
2:41 AM 50.0 °F - 50.0 °F 100% 30.00 in 0.5 mi WNW 3.5 mph - N/A Fog Fog
2:58 AM 49.6 °F - 49.6 °F 100% 29.99 in 0.5 mi West 2.3 mph - N/A Fog Fog
3:58 AM 49.1 °F - 49.1 °F 100% 29.98 in 0.2 mi WNW 2.3 mph - N/A Fog Fog
4:58 AM 49.1 °F - 49.1 °F 100% 29.99 in 0.5 mi Calm Calm - N/A Fog Fog
5:58 AM 49.5 °F - 49.5 °F 100% 29.99 in 0.8 mi NW 3.5 mph - N/A   Overcast
6:23 AM 50.0 °F - 50.0 °F 100% 30.01 in 1.0 mi Calm Calm - N/A   Overcast
6:28 AM 50.0 °F - 50.0 °F 100% 30.01 in 4.0 mi Variable 1.2 mph - N/A   Overcast
6:50 AM 50.0 °F - 50.0 °F 100% 30.01 in 2.0 mi SE 3.5 mph - N/A   Light Drizzle
6:58 AM 50.0 °F - 50.0 °F 100% 30.00 in 2.0 mi ESE 4.6 mph - 0.00 in   Light Drizzle
7:08 AM 50.0 °F - 50.0 °F 100% 30.02 in 2.0 mi ESE 2.3 mph - N/A   Overcast
7:44 AM 50.0 °F - 50.0 °F 100% 30.02 in 2.5 mi ESE 5.8 mph - N/A   Overcast
7:58 AM 50.2 °F - 50.2 °F 100% 30.03 in 2.5 mi East 2.3 mph - 0.00 in   Overcast
8:13 AM 50.0 °F - 50.0 °F 100% 30.04 in 3.0 mi SE 1.2 mph - N/A   Overcast
8:58 AM 50.0 °F - 50.0 °F 100% 30.05 in 4.0 mi South 2.3 mph - N/A   Overcast
9:28 AM 50.0 °F - 50.0 °F 100% 30.05 in 9.0 mi East 1.2 mph - N/A   Overcast
9:49 AM 51.8 °F - 51.8 °F 100% 30.06 in 10.0 mi Calm Calm - N/A   Overcast
9:58 AM 51.4 °F - 51.4 °F 100% 30.06 in 10.0 mi Calm Calm - N/A   Overcast
10:30 AM 51.8 °F - 51.8 °F 100% 30.06 in 10.0 mi Variable 2.3 mph - N/A   Mostly Cloudy
10:40 AM 53.6 °F - 53.6 °F 100% 30.06 in 10.0 mi West 3.5 mph - N/A   Mostly Cloudy
10:58 AM 53.2 °F - 53.2 °F 100% 30.06 in 10.0 mi SSE 2.3 mph - N/A   Mostly Cloudy
11:14 AM 53.6 °F - 53.6 °F 100% 30.06 in 10.0 mi Variable 1.2 mph - N/A   Mostly Cloudy
11:50 AM 57.2 °F - 57.2 °F 100% 30.05 in 10.0 mi Variable 1.2 mph - N/A   Mostly Cloudy
11:58 AM 58.1 °F - 57.6 °F 98% 30.05 in 10.0 mi NNW 3.5 mph - N/A   Mostly Cloudy
12:04 PM 59.0 °F - 57.2 °F 94% 30.05 in 10.0 mi Variable 1.2 mph - N/A   Mostly Cloudy
12:58 PM 61.9 °F - 57.0 °F 84% 30.03 in 10.0 mi Variable 1.2 mph - N/A   Clear
1:58 PM 68.0 °F - 58.8 °F 72% 30.01 in 7.0 mi WNW 4.6 mph - 0.00 in Rain Light Rain
2:58 PM 66.9 °F - 57.4 °F 71% 29.99 in 10.0 mi Variable 6.9 mph - N/A   Mostly Cloudy
3:58 PM 64.6 °F - 56.3 °F 74% 30.00 in 10.0 mi WNW 11.5 mph - N/A   Clear
4:58 PM 63.3 °F - 54.7 °F 73% 29.99 in 9.0 mi NW 9.2 mph - N/A   Mostly Cloudy
5:58 PM 60.4 °F - 54.1 °F 80% 30.00 in 9.0 mi WNW 9.2 mph - N/A   Overcast
6:58 PM 59.0 °F - 53.2 °F 81% 30.00 in 8.0 mi WNW 4.6 mph - N/A   Overcast
7:58 PM 55.9 °F - 51.8 °F 86% 30.01 in 8.0 mi West 5.8 mph - N/A   Overcast
8:58 PM 56.5 °F - 52.2 °F 85% 30.05 in 8.0 mi WNW 10.4 mph - N/A   Overcast
9:58 PM 54.0 °F - 50.7 °F 89% 30.06 in 10.0 mi NW 3.5 mph - N/A   Partly Cloudy
10:58 PM 50.2 °F - 49.1 °F 96% 30.08 in 8.0 mi NW 3.5 mph - N/A   Clear
11:58 PM 48.0 °F - 48.0 °F 100% 30.07 in 6.0 mi West 2.3 mph - N/A   Clear